Location: Santiago
(33.4378°S, 70.6505°W)
Time: 08:53:23
(UTC+00:00)

ISS - Pass Details

Date: 07 February 2026
Orbit: 413 x 428 km, 51.6° (Epoch: 14 February)

Event Time Altitude Azimuth Distance (km) Brightness Sun altitude
Rises 00:33:06 0° 313° (NW) 2,383 0.4 -10.5°
Reaches altitude 10° 00:35:12 10° 312° (NW) 1,526 -0.6 -10.9°
Maximum altitude 00:38:38 82° 223° (SW) 442 -3.6 -11.6°
Drops below altitude 10° 00:42:07 10° 135° (SE) 1,548 -1.1 -12.2°
Sets 00:44:16 0° 134° (SE) 2,422 -0.1 -12.6°
